UAL2394 KBOS-KEWR

Flight info

Callsign UAL2394
Flight time 0h 58m
Altitude 16000
Route PATSS7 PATSS DCT NELIE FLOSI4
Aircraft A320/M-SDE3FGHIRWY/LB1

Departure

Time 2026-05-05 14:45
Airport Boston Logan International Airport (KBOS)

Arrival

Time 2026-05-05 15:43
Airport Newark Liberty International Airport (KEWR)
Time Latitude Longitude Altitude Speed Heading
2026-05-05 14:26 42.36799 -71.01416 16 ft 0 kts 259°
2026-05-05 14:35 42.36799 -71.01415 16 ft 0 kts 259°
2026-05-05 14:35 42.36799 -71.01416 16 ft 0 kts 259°
2026-05-05 14:36 42.36799 -71.01414 16 ft 2 kts 259°
2026-05-05 14:36 42.36802 -71.01392 15 ft 2 kts 263°
2026-05-05 14:36 42.36802 -71.01370 16 ft 2 kts 281°
2026-05-05 14:36 42.36799 -71.01349 17 ft 2 kts 282°
2026-05-05 14:37 42.36796 -71.01327 18 ft 2 kts 283°
2026-05-05 14:37 42.36791 -71.01306 15 ft 2 kts 293°
2026-05-05 14:37 42.36789 -71.01299 15 ft 0 kts 314°
2026-05-05 14:39 42.36790 -71.01301 15 ft 1 kts 313°
2026-05-05 14:39 42.36806 -71.01318 15 ft 5 kts 328°
2026-05-05 14:39 42.36846 -71.01318 14 ft 9 kts 15°
2026-05-05 14:39 42.36879 -71.01252 13 ft 11 kts 74°
2026-05-05 14:40 42.36939 -71.01157 14 ft 16 kts 41°
2026-05-05 14:40 42.37044 -71.01069 12 ft 19 kts 26°
2026-05-05 14:40 42.37172 -71.00986 12 ft 21 kts 26°
2026-05-05 14:40 42.37311 -71.00892 11 ft 24 kts 26°
2026-05-05 14:41 42.37469 -71.00813 14 ft 24 kts 20°
2026-05-05 14:41 42.37624 -71.00745 18 ft 23 kts 19°
2026-05-05 14:41 42.37723 -71.00699 22 ft 22 kts 19°
2026-05-05 14:41 42.37834 -71.00572 23 ft 8 kts 126°
2026-05-05 14:42 42.37808 -71.00479 21 ft 14 kts 104°
2026-05-05 14:42 42.37782 -71.00373 21 ft 8 kts 111°
2026-05-05 14:42 42.37758 -71.00289 21 ft 11 kts 110°
2026-05-05 14:42 42.37741 -71.00225 20 ft 1 kts 110°
2026-05-05 14:43 42.37736 -71.00209 18 ft 4 kts 110°
2026-05-05 14:43 42.37722 -71.00153 16 ft 9 kts 110°
2026-05-05 14:43 42.37693 -71.00043 14 ft 14 kts 109°
2026-05-05 14:43 42.37643 -70.99959 16 ft 10 kts 172°
2026-05-05 14:44 42.37607 -70.99967 17 ft 0 kts 205°
2026-05-05 14:44 42.37533 -71.00010 18 ft 41 kts 202°
2026-05-05 14:44 42.37049 -71.00243 17 ft 103 kts 199°
2026-05-05 14:45 42.36221 -71.00647 28 ft 147 kts 202°
2026-05-05 14:45 42.35232 -71.01122 509 ft 153 kts 200°
2026-05-05 14:45 42.34188 -71.01478 1070 ft 163 kts 184°
2026-05-05 14:45 42.33067 -71.00944 1703 ft 187 kts 152°
2026-05-05 14:46 42.32176 -70.99498 2157 ft 209 kts 134°
2026-05-05 14:46 42.31314 -70.97784 2358 ft 239 kts 128°
2026-05-05 14:46 42.30716 -70.95589 2907 ft 259 kts 102°
2026-05-05 14:46 42.30740 -70.93088 3499 ft 278 kts 84°
2026-05-05 14:47 42.31195 -70.90388 3903 ft 304 kts 72°
2026-05-05 14:47 42.31997 -70.87670 4547 ft 314 kts 66°
2026-05-05 14:47 42.32769 -70.84994 5608 ft 308 kts 75°
2026-05-05 14:47 42.32983 -70.82141 6497 ft 305 kts 98°
2026-05-05 14:48 42.32539 -70.79368 7301 ft 302 kts 114°
2026-05-05 14:48 42.31675 -70.76792 8104 ft 300 kts 126°
2026-05-05 14:48 42.30416 -70.74580 8889 ft 295 kts 143°
2026-05-05 14:48 42.28781 -70.72968 9671 ft 289 kts 161°
2026-05-05 14:49 42.26909 -70.72111 10350 ft 284 kts 177°
2026-05-05 14:49 42.24935 -70.72052 10847 ft 285 kts 194°
2026-05-05 14:49 42.22975 -70.72524 11498 ft 288 kts 197°
2026-05-05 14:49 42.21106 -70.73428 12157 ft 285 kts 213°
2026-05-05 14:50 42.19551 -70.75060 12822 ft 284 kts 230°
2026-05-05 14:50 42.18414 -70.77317 13052 ft 302 kts 247°
2026-05-05 14:50 42.17841 -70.80135 13190 ft 323 kts 259°
2026-05-05 14:50 42.17438 -70.83204 13329 ft 342 kts 259°
2026-05-05 14:51 42.17013 -70.86413 13722 ft 352 kts 259°
2026-05-05 14:51 42.16575 -70.89682 14240 ft 357 kts 258°
2026-05-05 14:51 42.16125 -70.92988 14803 ft 361 kts 258°
2026-05-05 14:51 42.15701 -70.96335 15362 ft 364 kts 260°
2026-05-05 14:52 42.15364 -70.99700 15847 ft 369 kts 261°
2026-05-05 14:52 42.15071 -71.03142 15997 ft 372 kts 262°
2026-05-05 14:52 42.14786 -71.06684 16030 ft 389 kts 262°
2026-05-05 14:52 42.14489 -71.10363 16028 ft 398 kts 262°
2026-05-05 14:53 42.14180 -71.14076 16027 ft 400 kts 261°
2026-05-05 14:53 42.13857 -71.17799 16030 ft 400 kts 261°
2026-05-05 14:53 42.13523 -71.21522 16024 ft 400 kts 261°
2026-05-05 14:53 42.13183 -71.25240 16025 ft 400 kts 261°
2026-05-05 14:54 42.12842 -71.28965 16026 ft 400 kts 261°
2026-05-05 14:54 42.12501 -71.32687 16028 ft 401 kts 261°
2026-05-05 14:54 42.12160 -71.36409 16027 ft 400 kts 261°
2026-05-05 14:54 42.11816 -71.40128 16023 ft 400 kts 261°
2026-05-05 14:55 42.11468 -71.43842 16035 ft 400 kts 261°
2026-05-05 14:55 42.11118 -71.47559 16033 ft 400 kts 261°
2026-05-05 14:55 42.10768 -71.51293 16035 ft 401 kts 261°
2026-05-05 14:55 42.10425 -71.54964 16028 ft 400 kts 261°
2026-05-05 14:56 42.10079 -71.58679 16029 ft 400 kts 261°
2026-05-05 14:56 42.09731 -71.62395 16025 ft 400 kts 261°
2026-05-05 14:56 42.09379 -71.66115 16023 ft 400 kts 261°
2026-05-05 14:56 42.09026 -71.69825 16007 ft 400 kts 261°
2026-05-05 14:57 42.08627 -71.73528 16007 ft 399 kts 259°
2026-05-05 14:57 42.08135 -71.77207 16003 ft 399 kts 257°
2026-05-05 14:57 42.07583 -71.80858 16007 ft 398 kts 256°
2026-05-05 14:57 42.07005 -71.84502 16005 ft 398 kts 256°
2026-05-05 14:58 42.06424 -71.88148 16004 ft 398 kts 256°
2026-05-05 14:58 42.05852 -71.91788 16001 ft 398 kts 257°
2026-05-05 14:58 42.05290 -71.95438 16000 ft 398 kts 257°
2026-05-05 14:58 42.04737 -71.99091 15999 ft 398 kts 257°
2026-05-05 14:59 42.04191 -72.02746 16000 ft 398 kts 257°
2026-05-05 14:59 42.03649 -72.06402 15998 ft 398 kts 257°
2026-05-05 14:59 42.03106 -72.10050 16002 ft 398 kts 257°
2026-05-05 14:59 42.02561 -72.13699 16005 ft 398 kts 257°
2026-05-05 15:00 42.02014 -72.17346 16005 ft 398 kts 257°
2026-05-05 15:00 42.01652 -72.19763 16007 ft 397 kts 257°
2026-05-05 15:00 42.00917 -72.24629 16008 ft 397 kts 257°
2026-05-05 15:00 42.00359 -72.28275 15978 ft 397 kts 257°
2026-05-05 15:01 41.99801 -72.31914 15979 ft 397 kts 257°
2026-05-05 15:01 41.99248 -72.35499 15980 ft 397 kts 257°
2026-05-05 15:01 41.98686 -72.39135 15998 ft 397 kts 257°
2026-05-05 15:01 41.98128 -72.42768 16001 ft 397 kts 257°
2026-05-05 15:02 41.97571 -72.46400 16006 ft 397 kts 257°
2026-05-05 15:02 41.97015 -72.50037 16006 ft 397 kts 257°
2026-05-05 15:02 41.96459 -72.53669 16005 ft 397 kts 257°
2026-05-05 15:02 41.95899 -72.57300 16001 ft 397 kts 257°
2026-05-05 15:03 41.95333 -72.60921 16003 ft 396 kts 257°
2026-05-05 15:03 41.94764 -72.64545 15999 ft 396 kts 257°
2026-05-05 15:03 41.94195 -72.68170 15998 ft 396 kts 256°
2026-05-05 15:03 41.93423 -72.71717 15996 ft 395 kts 252°
2026-05-05 15:04 41.92592 -72.75238 16001 ft 395 kts 251°
2026-05-05 15:04 41.91757 -72.78755 15999 ft 396 kts 251°
2026-05-05 15:04 41.90918 -72.82271 15998 ft 396 kts 251°
2026-05-05 15:04 41.90076 -72.85793 15998 ft 396 kts 251°
2026-05-05 15:05 41.88389 -72.92823 15997 ft 395 kts 251°
2026-05-05 15:05 41.87554 -72.96293 15997 ft 396 kts 251°
2026-05-05 15:05 41.86709 -72.99801 15988 ft 395 kts 251°
2026-05-05 15:06 41.85864 -73.03316 15992 ft 395 kts 252°
2026-05-05 15:06 41.85021 -73.06830 15996 ft 395 kts 251°
2026-05-05 15:06 41.84181 -73.10335 15990 ft 395 kts 252°
2026-05-05 15:06 41.83337 -73.13840 15989 ft 395 kts 251°
2026-05-05 15:07 41.82490 -73.17337 15989 ft 394 kts 251°
2026-05-05 15:07 41.81638 -73.20835 15986 ft 394 kts 251°
2026-05-05 15:07 41.80788 -73.24334 15985 ft 394 kts 251°
2026-05-05 15:07 41.79939 -73.27828 15983 ft 394 kts 251°
2026-05-05 15:08 41.79090 -73.31315 15982 ft 394 kts 251°
2026-05-05 15:08 41.78239 -73.34803 15976 ft 394 kts 251°
2026-05-05 15:08 41.77390 -73.38285 15978 ft 394 kts 251°
2026-05-05 15:08 41.76537 -73.41772 15979 ft 394 kts 251°
2026-05-05 15:09 41.75684 -73.45253 15973 ft 394 kts 252°
2026-05-05 15:09 41.74830 -73.48731 15975 ft 393 kts 251°
2026-05-05 15:09 41.73973 -73.52212 15973 ft 393 kts 251°
2026-05-05 15:09 41.73127 -73.55641 15975 ft 393 kts 251°
2026-05-05 15:10 41.72270 -73.59117 15976 ft 393 kts 251°
2026-05-05 15:10 41.71413 -73.62587 15977 ft 393 kts 251°
2026-05-05 15:10 41.70555 -73.66060 15976 ft 392 kts 251°
2026-05-05 15:10 41.69699 -73.69522 15975 ft 392 kts 251°
2026-05-05 15:11 41.68842 -73.72983 15978 ft 392 kts 251°
2026-05-05 15:11 41.67984 -73.76436 15976 ft 391 kts 251°
2026-05-05 15:11 41.67123 -73.79888 15981 ft 391 kts 251°
2026-05-05 15:11 41.66263 -73.83341 15977 ft 391 kts 252°
2026-05-05 15:12 41.65427 -73.86790 15977 ft 390 kts 252°
2026-05-05 15:12 41.64612 -73.90253 15976 ft 390 kts 252°
2026-05-05 15:12 41.63806 -73.93720 15974 ft 390 kts 253°
2026-05-05 15:12 41.63001 -73.97181 15970 ft 390 kts 252°
2026-05-05 15:13 41.62192 -74.00635 15972 ft 390 kts 252°
2026-05-05 15:13 41.61374 -74.04089 15969 ft 390 kts 252°
2026-05-05 15:13 41.60551 -74.07533 15979 ft 390 kts 252°
2026-05-05 15:13 41.59728 -74.10980 15981 ft 389 kts 252°
2026-05-05 15:14 41.58905 -74.14428 15982 ft 389 kts 252°
2026-05-05 15:14 41.58093 -74.17826 15979 ft 389 kts 252°
2026-05-05 15:14 41.57259 -74.21308 15980 ft 389 kts 252°
2026-05-05 15:14 41.56446 -74.24701 15981 ft 389 kts 252°
2026-05-05 15:15 41.55441 -74.28043 15974 ft 389 kts 243°
2026-05-05 15:15 41.53915 -74.31037 15978 ft 392 kts 231°
2026-05-05 15:15 41.51926 -74.33523 15976 ft 395 kts 219°
2026-05-05 15:15 41.49540 -74.35391 15971 ft 401 kts 207°
2026-05-05 15:16 41.46899 -74.36633 15973 ft 404 kts 202°
2026-05-05 15:16 41.44223 -74.37781 15972 ft 404 kts 202°
2026-05-05 15:16 41.41546 -74.38930 15971 ft 404 kts 202°
2026-05-05 15:16 41.38869 -74.40081 15972 ft 404 kts 202°
2026-05-05 15:17 41.36192 -74.41232 15881 ft 405 kts 202°
2026-05-05 15:17 41.33520 -74.42383 15369 ft 401 kts 202°
2026-05-05 15:17 41.30873 -74.43519 14603 ft 397 kts 202°
2026-05-05 15:17 41.28254 -74.44639 13862 ft 394 kts 203°
2026-05-05 15:18 41.25699 -74.45729 13045 ft 376 kts 203°
2026-05-05 15:18 41.23300 -74.46745 12370 ft 356 kts 202°
2026-05-05 15:18 41.20993 -74.47722 11721 ft 346 kts 202°
2026-05-05 15:18 41.18711 -74.48699 11102 ft 338 kts 202°
2026-05-05 15:19 41.16544 -74.49624 10937 ft 316 kts 202°
2026-05-05 15:19 41.14510 -74.50491 10814 ft 300 kts 202°
2026-05-05 15:19 41.12558 -74.51324 10688 ft 288 kts 203°
2026-05-05 15:19 41.10661 -74.52010 10567 ft 281 kts 193°
2026-05-05 15:20 41.08712 -74.51938 10391 ft 284 kts 175°
2026-05-05 15:20 41.06863 -74.50946 10147 ft 293 kts 154°
2026-05-05 15:20 41.05359 -74.49085 9914 ft 303 kts 132°
2026-05-05 15:20 41.04385 -74.46573 9799 ft 310 kts 120°
2026-05-05 15:21 41.03545 -74.43951 9674 ft 309 kts 120°
2026-05-05 15:21 41.02701 -74.41333 9534 ft 308 kts 120°
2026-05-05 15:21 41.01855 -74.38729 9410 ft 307 kts 120°
2026-05-05 15:21 41.01020 -74.36162 9203 ft 301 kts 120°
2026-05-05 15:22 41.00182 -74.33597 8724 ft 307 kts 120°
2026-05-05 15:22 40.99324 -74.30984 8202 ft 313 kts 119°
2026-05-05 15:22 40.98447 -74.28323 7660 ft 316 kts 119°
2026-05-05 15:22 40.97591 -74.25712 7138 ft 310 kts 118°
2026-05-05 15:23 40.96747 -74.23122 6627 ft 303 kts 118°
2026-05-05 15:23 40.95919 -74.20582 6101 ft 298 kts 118°
2026-05-05 15:23 40.95107 -74.18094 5592 ft 292 kts 118°
2026-05-05 15:23 40.94084 -74.15838 5113 ft 283 kts 135°
2026-05-05 15:24 40.92662 -74.14064 4628 ft 281 kts 150°
2026-05-05 15:24 40.90991 -74.12758 4161 ft 277 kts 156°
2026-05-05 15:24 40.89338 -74.11528 3902 ft 268 kts 156°
2026-05-05 15:24 40.87741 -74.10332 3820 ft 259 kts 156°
2026-05-05 15:25 40.86194 -74.09173 3730 ft 250 kts 156°
2026-05-05 15:25 40.84744 -74.08080 3614 ft 230 kts 158°
2026-05-05 15:25 40.83353 -74.07365 3535 ft 200 kts 175°
2026-05-05 15:25 40.82026 -74.07208 3257 ft 187 kts 186°
2026-05-05 15:26 40.80750 -74.07165 2968 ft 180 kts 186°
2026-05-05 15:26 40.79544 -74.07116 2721 ft 165 kts 187°
2026-05-05 15:26 40.78463 -74.07070 2507 ft 148 kts 187°
2026-05-05 15:26 40.77465 -74.07031 2313 ft 141 kts 188°
2026-05-05 15:27 40.76488 -74.07012 2153 ft 138 kts 192°
2026-05-05 15:27 40.75575 -74.07239 1973 ft 132 kts 205°
2026-05-05 15:27 40.74736 -74.07740 1791 ft 133 kts 213°
2026-05-05 15:27 40.73902 -74.08304 1598 ft 137 kts 213°
2026-05-05 15:28 40.73052 -74.08875 1412 ft 138 kts 210°
2026-05-05 15:28 40.72209 -74.09441 1208 ft 136 kts 210°
2026-05-05 15:28 40.71368 -74.09998 1043 ft 135 kts 207°
2026-05-05 15:28 40.70588 -74.10664 902 ft 135 kts 229°
2026-05-05 15:29 40.70277 -74.11815 696 ft 141 kts 265°
2026-05-05 15:29 40.70331 -74.13061 623 ft 131 kts 253°
2026-05-05 15:29 40.70068 -74.14211 414 ft 137 kts 259°
2026-05-05 15:29 40.70115 -74.15510 101 ft 140 kts 270°
2026-05-05 15:30 40.70201 -74.16678 22 ft 121 kts 266°
2026-05-05 15:30 40.70324 -74.17928 329 ft 155 kts 275°
2026-05-05 15:30 40.70570 -74.19464 799 ft 186 kts 274°
2026-05-05 15:30 40.70803 -74.21259 1272 ft 211 kts 274°
2026-05-05 15:31 40.71033 -74.23323 1613 ft 242 kts 275°
2026-05-05 15:31 40.71189 -74.25469 2523 ft 224 kts 272°
2026-05-05 15:31 40.71271 -74.27390 2838 ft 200 kts 270°
2026-05-05 15:31 40.71330 -74.29203 2974 ft 197 kts 270°
2026-05-05 15:32 40.71384 -74.30995 3004 ft 195 kts 271°
2026-05-05 15:32 40.71443 -74.32784 3005 ft 196 kts 270°
2026-05-05 15:32 40.71507 -74.34583 3007 ft 198 kts 271°
2026-05-05 15:32 40.71579 -74.36398 3008 ft 198 kts 271°
2026-05-05 15:33 40.71651 -74.38179 3006 ft 197 kts 270°
2026-05-05 15:33 40.71715 -74.39984 3002 ft 196 kts 267°
2026-05-05 15:33 40.71316 -74.41656 3005 ft 194 kts 234°
2026-05-05 15:33 40.70267 -74.42819 3008 ft 201 kts 220°
2026-05-05 15:34 40.69423 -74.44225 3003 ft 199 kts 253°
2026-05-05 15:34 40.69400 -74.46124 2999 ft 218 kts 285°
2026-05-05 15:34 40.70256 -74.47812 2992 ft 231 kts 316°
2026-05-05 15:34 40.71776 -74.48644 3231 ft 250 kts 352°
2026-05-05 15:35 40.73518 -74.48230 4179 ft 264 kts 21°
2026-05-05 15:35 40.75087 -74.46857 4792 ft 276 kts 35°
2026-05-05 15:35 40.76561 -74.45243 4953 ft 275 kts 37°
2026-05-05 15:35 40.78019 -74.43610 5005 ft 276 kts 38°
2026-05-05 15:36 40.79481 -74.41963 5001 ft 276 kts 38°
2026-05-05 15:36 40.80447 -74.40877 4996 ft 275 kts 37°
2026-05-05 15:36 40.81909 -74.39236 5009 ft 276 kts 38°
2026-05-05 15:36 40.83846 -74.37057 5007 ft 276 kts 38°
2026-05-05 15:37 40.85303 -74.35416 4989 ft 276 kts 38°
2026-05-05 15:37 40.86766 -74.33766 5000 ft 276 kts 38°
2026-05-05 15:37 40.88211 -74.32094 5001 ft 277 kts 43°
2026-05-05 15:37 40.89240 -74.29962 4969 ft 277 kts 72°
2026-05-05 15:38 40.89471 -74.28320 4818 ft 273 kts 93°
2026-05-05 15:38 40.89081 -74.25934 4628 ft 262 kts 118°
2026-05-05 15:38 40.88306 -74.23779 4418 ft 257 kts 122°
2026-05-05 15:38 40.87487 -74.21700 4214 ft 252 kts 126°
2026-05-05 15:39 40.86406 -74.19971 3973 ft 241 kts 141°
2026-05-05 15:39 40.85218 -74.18415 3679 ft 241 kts 141°
2026-05-05 15:39 40.84019 -74.16856 3343 ft 241 kts 142°
2026-05-05 15:39 40.82826 -74.15309 3052 ft 241 kts 142°
2026-05-05 15:40 40.81657 -74.13785 2697 ft 227 kts 141°
2026-05-05 15:40 40.80544 -74.12452 2391 ft 206 kts 153°
2026-05-05 15:40 40.79333 -74.11678 2126 ft 182 kts 170°
2026-05-05 15:40 40.78151 -74.11438 1995 ft 165 kts 184°
2026-05-05 15:41 40.77054 -74.11608 1676 ft 155 kts 198°
2026-05-05 15:41 40.76067 -74.12134 1410 ft 151 kts 209°
2026-05-05 15:41 40.75117 -74.12739 1197 ft 152 kts 208°
2026-05-05 15:41 40.74183 -74.13332 992 ft 142 kts 210°
2026-05-05 15:42 40.73321 -74.13887 753 ft 135 kts 210°
2026-05-05 15:42 40.72484 -74.14438 625 ft 136 kts 207°
2026-05-05 15:42 40.71638 -74.14987 493 ft 133 kts 206°
2026-05-05 15:42 40.70784 -74.15510 288 ft 136 kts 207°
2026-05-05 15:43 40.69926 -74.16043 69 ft 136 kts 208°
2026-05-05 15:43 40.69162 -74.16541 24 ft 101 kts 206°
2026-05-05 15:43 40.68679 -74.16842 19 ft 52 kts 206°
2026-05-05 15:43 40.68537 -74.16993 20 ft 8 kts 231°
2026-05-05 15:44 40.68496 -74.17091 22 ft 15 kts 242°
2026-05-05 15:44 40.68452 -74.17178 23 ft 0 kts 236°
2026-05-05 15:46 40.68449 -74.17185 23 ft 4 kts 239°
2026-05-05 15:46 40.68447 -74.17246 23 ft 14 kts 289°
2026-05-05 15:46 40.68501 -74.17392 22 ft 19 kts 295°
2026-05-05 15:46 40.68464 -74.17520 24 ft 17 kts 205°
2026-05-05 15:47 40.68408 -74.17630 22 ft 15 kts 295°
2026-05-05 15:47 40.68476 -74.17741 22 ft 17 kts 300°
2026-05-05 15:47 40.68515 -74.17904 19 ft 20 kts 256°
2026-05-05 15:47 40.68492 -74.18041 19 ft 0 kts 261°